Regional Weather Roundup
Issued by NWS Newport/Morehead, NC

Current Version | Previous Version | Text Only | Print | Product List | Glossary Off
Versions: 1 2 3 4 5 6 7 8 9 10 11 12 13 14 15 16 17 18 19 20 21 22 23 24 25 26 27 28 29 30 31 32 33 34 35 36 37 38 39 40 41 42 43 44 45 46 47 48 49 50
667 ASUS42 KMHX 050513 RWRMHX WEATHER ROUNDUP FOR EASTERN NORTH CAROLINA NATIONAL WEATHER SERVICE NEWPORT/MOREHEAD CITY NC 100 AM EDT THU MAY 05 2016 NOTE: "FAIR" INDICATES FEW OR NO CLOUDS BELOW 12,000 FEET WITH NO SIGNIFICANT WEATHER AND/OR OBSTRUCTIONS TO VISIBILITY NCZ015>017-031-032-045>047-102-103-050600- NORTH COAST CITY SKY/WX TMP DP RH WIND PRES REMARKS EDENTON NOT AVBL ELIZABETH CITY CLOUDY 56 54 93 NE9 29.64S KITTY HAWK CLOUDY 55 55 98 N3 29.62S MANTEO CLOUDY 56 56 97 NE12 29.63S $$ NCZ045>047-081-094-103-104-050600- CENTRAL COAST CITY SKY/WX TMP DP RH WIND PRES REMARKS FRISCO CLOUDY 59 57 93 NE13G20 29.61S SWANQUARTER NOT AVBL $$ NCZ095-097-098-100-101-050600- SOUTHERN COAST CITY SKY/WX TMP DP RH WIND PRES REMARKS BEAUFORT CLOUDY 65 63 93 NE10 29.59S CEDAR ISLAND NOT AVBL JACKSONVILLE MOCLDY 64 57 78 NE5 29.57F PINEY ISLAND CLOUDY N/A N/A N/A NE10 29.60S WILMINGTON MOCLDY 63 59 87 NW6 29.58F $$ NCZ011>013-027>030-043-044-078>080-089-090>093-098-050600- COASTAL PLAIN CITY SKY/WX TMP DP RH WIND PRES REMARKS AHOSKIE LGT RAIN 58 56 93 NE5 29.62F CLINTON CLOUDY 64 58 80 CALM 29.60F ELIZABETHTOWN CLOUDY 64 56 73 CALM 29.60F GOLDSBORO CLOUDY 62 62 100 CALM 29.57F GREENVILLE CLOUDY 63 63 100 E7 29.64S HAVELOCK CLOUDY 65 63 93 NE10 29.60F KENANSVILLE PTCLDY 57 56 96 CALM 29.59F KINSTON CLEAR 58 57 97 CALM 29.59F NEW BERN CLOUDY 64 62 93 E7 29.60F RICHLANDS PTCLDY 59 57 93 CALM 29.58F ROCKY MOUNT CLOUDY 60 59 96 CALM 29.59F WASHINGTON FOG 60 58 96 E13 29.61S VSB 1/2 WHITEVILLE NOT AVBL $$ AMZ130-135-150-152-154-156-158-170-250-252-270-ANZ085-086-088-633-658-670-050600- MARINE OBSERVATIONS STATION/POSITION TIME TEMP WIND PRES WAVE SWELL AIR SEA DIR/SP/G HT/PER HT/PER (UTC) (F) (DEG/KT/KT) (MB) (FT/S) (FT/S) CHESAPEAKE LIGHT 0400 51 30/ 15/ 17 1004.6 64 E VA BEACH 0450 52 54 20/ 14/ 16 1002.4 4/ 7 2/ 7 DUCK 0400 55 60 30/ 12/ 12 1002.9 2 E DUCK 0411 59 N/A 3/ 4 OREGON INLET 0400 57 65 10/ 10/ 15 1002.8 13E OREGON INLT 0500 59 N/A 4/ 7 3/ 7 HATTERAS CG 0400 62 70 30/ 12/ 18 1002.2 DIAMOND BUOY 0450 62 70 20/ 17/ 21 1002.3 4/ 8 2/ 8 CAPE LOOKOUT 0400 65 30/ 14/ 16 1001.5 BEAUFORT LAB 0400 66 68 30/ 7/ 11 1001.2 30 SE NEW RVR IN 0425 72 N/A 4/ 7 27 SE WRIGHTSVLE 0408 71 72 320/ 6/ 8 1000.9 5 SE WRIGHTSVLE 0408 69 69 340/ 6/ 10 1002.4 225 S CAPE HAT 0450 73 73 200/ 17/ 21 1004.2 6/ 7 2/ 9 41 SE CHARLESTON 0450 72 74 320/ 19/ 23 1002.4 3/ 4 2/ 7 $$

USA.gov is the U.S. government's official web portal to all federal, state and local government web resources and services.